[[{"header":{"parameterUnit":"m.s-1","parameterCategory":1,"la1":30.2991,"la2":30.254,"lo1":-89.0895,"lo2":-89.0444,"dy":0.0017,"dx":0.0017,"nx":28,"ny":28,"refTime":"2023-11-22T03:00:00:Z","depth":0,"parameterNumber":2,"parameterNumberName":"U-component_of_WINDS"},"data":[0,0,0,0,0,0,0,0,0,0,0,0,0,0,0,0,0,0,0,0,0,0,0,0,0,0,0,0,0,0,0,0,0,0,0,0,0,0,0,0,0,0,0,0,0,0,0,0,0,0,0,0,0,0,0,0,0,0,3.1827,3.1827,0,3.1833,3.1833,3.1833,3.1785,3.1784,3.1782,3.1781,3.1785,3.1787,3.1788,0,0,0,0,0,0,0,0,0,0,0,0,0,3.1777,3.1778,3.1827,3.1827,3.1827,3.1833,3.1833,3.1833,3.1785,3.1784,3.1782,3.1781,3.1785,3.1786,3.1788,0,0,0,0,0,0,0,0,0,0,0,0,0,3.1792,3.1778,3.1827,3.1804,3.1802,3.1833,3.1833,3.1833,3.1786,3.1784,3.1782,3.178,3.1784,3.1786,3.1788,3.1841,0,0,3.1794,3.1795,0,0,0,0,0,0,0,0,3.1791,3.1794,3.1808,3.1806,3.1804,3.1806,3.1817,3.1836,3.1786,3.1792,3.1781,3.1779,3.1794,3.1795,3.18,3.1841,3.1841,3.1795,3.1796,3.1797,3.1797,0,0,0,0,0,0,0,3.179,3.1794,3.1829,3.1808,3.1806,3.1794,3.1794,3.182,3.1804,3.1791,3.1788,3.1789,3.1792,3.1798,3.18,3.1841,3.1795,3.1796,3.1798,3.1798,3.193,3.1932,0,0,0,0,0,0,3.1792,3.1793,3.1829,3.183,3.1793,3.1797,3.1797,3.1807,3.1803,3.1801,3.1791,3.1787,3.1796,3.1798,3.18,3.1864,3.1797,3.1799,3.18,3.1928,3.193,3.1933,0,0,0,0,0,0,3.1792,3.1796,3.1829,3.1811,3.1814,3.18,3.1812,3.1809,3.1815,3.1803,3.18,3.18,3.1794,3.1797,3.1832,3.1864,3.1799,3.1801,3.1925,3.1928,3.1932,3.1991,0,0,0,0,0,0,3.179,3.1796,3.1815,3.1811,3.1815,3.1861,3.1814,3.181,3.1819,3.1813,3.1811,3.1809,3.1793,3.1829,3.1834,3.1865,3.1803,3.1922,3.1926,3.193,3.1986,3.1996,3.2005,0,0,0,0,0,3.1789,3.183,3.1816,3.1821,3.1839,3.1862,3.1865,3.1846,3.1821,3.1841,3.1835,3.1809,3.1859,3.1833,3.1838,3.187,3.192,3.1925,3.193,3.1982,3.1994,3.2005,0,0,0,0,0,0,3.1836,3.1829,3.1813,3.1855,3.186,3.1854,3.1878,3.1859,3.187,3.1865,3.1842,3.1842,3.1881,3.1879,3.185,3.1923,3.1885,3.1892,3.1923,3.1935,3.1944,3.1944,3.1805,0,0,0,0,0,3.1852,3.1872,3.1864,3.1902,3.1905,3.1892,3.1901,3.1888,3.1891,3.1893,3.1888,3.1893,3.1911,3.1922,3.1937,3.1986,3.1987,3.2011,3.202,3.2028,3.2034,3.2064,3.2075,3.195,3.195,3.1949,0,0,3.1883,3.1882,3.1896,3.1912,3.1914,3.1936,3.1894,3.1918,3.1935,3.1896,3.193,3.1928,3.1932,3.1975,3.1994,3.1974,3.2069,3.2034,3.204,3.2042,3.207,3.2082,3.2093,3.1953,3.1952,3.1952,0,0,3.1954,3.1954,3.1987,3.1991,3.1996,3.1987,3.1995,3.1994,3.1991,3.2025,3.1998,3.2018,3.2047,3.2053,3.2059,3.2137,3.2115,3.2142,3.219,3.222,3.223,3.2238,3.2269,3.228,3.2148,3.2148,3.2148,0,3.1992,3.2025,3.2006,3.2034,3.2043,3.2011,3.2046,3.2051,3.206,3.2067,3.2046,3.2085,3.2085,3.2131,3.2151,3.2156,3.2167,3.2142,3.223,3.2238,3.2246,3.2275,3.2286,3.2152,3.2151,3.2151,3.2151,0,3.2074,3.2098,3.2124,3.2136,3.2148,3.2179,3.2166,3.2181,3.2167,3.2161,3.2199,3.2198,3.2215,3.2224,3.2209,3.227,3.2258,3.2234,3.2195,3.2262,3.2289,3.23,3.2157,3.2155,3.2154,3.2154,0,0,3.2172,3.2176,3.2187,3.2194,3.2199,3.2217,3.2248,3.2266,3.228,3.2288,3.2315,3.2344,3.2322,3.233,3.2316,3.2342,3.2408,3.2314,3.2314,3.2334,3.2478,3.2498,3.2511,3.2393,3.2395,3.2397,3.2479,0,3.2242,3.2296,3.2282,3.2336,3.2359,3.2332,3.2359,3.2366,3.2363,3.2383,3.2378,3.24,3.2369,3.2374,3.2398,3.2395,3.2437,3.2388,3.242,3.2421,3.2421,3.2525,3.2545,3.2622,3.2489,3.2491,3.2492,0,3.2331,3.2346,3.2403,3.2408,3.2417,3.2442,3.246,3.2479,3.2487,3.2483,3.2495,3.2477,3.251,3.2472,3.2518,3.2485,3.2498,3.2499,3.2501,3.2504,3.2461,3.2533,3.2645,3.2658,3.2508,3.2506,3.2505,0,3.24,3.2434,3.2474,3.248,3.2487,3.2506,3.2509,3.2516,3.2529,3.2544,3.2553,3.2572,3.2582,3.2598,3.2587,3.2559,3.2636,3.2596,3.2636,3.2636,3.2653,3.2652,3.2772,3.2659,3.2658,3.2658,3.2658,0,3.2481,3.2518,3.2506,3.253,3.2571,3.2556,3.2597,3.2598,3.2605,3.263,3.2607,3.2631,3.2614,3.2638,3.2629,3.2671,3.2675,3.2674,3.2672,3.2677,3.2678,3.2686,3.2681,3.2661,3.266,3.266,3.2659,0,3.2565,3.2558,3.26,3.2604,3.2607,3.2637,3.2641,3.2665,3.2661,3.2694,3.2701,3.2695,3.2722,3.2713,3.274,3.2735,3.2789,3.2779,3.2787,3.2785,3.2827,3.2824,3.2956,3.2974,3.2848,3.2849,3.285,0,3.2618,3.2646,3.2655,3.2671,3.2677,3.2702,3.2717,3.2703,3.2719,3.2734,3.2757,3.2782,3.2802,3.2847,3.2845,3.2868,3.2859,3.2904,3.2862,3.2869,3.2863,3.2863,3.2867,3.2913,3.2914,3.2916,3.2916,0,3.2714,3.271,3.2732,3.2754,3.2772,3.2788,3.2802,3.2817,3.2805,3.2825,3.2853,3.2869,3.29,3.2926,3.2948,3.2952,3.2934,3.293,3.2941,3.2948,3.2952,3.2953,3.2812,3.2927,3.2926,3.2925,3.2925,3.2924,3.2785,3.2811,3.2822,3.2849,3.2859,3.2874,3.2898,3.2898,3.2922,3.2947,3.2938,3.2972,3.2983,3.3011,3.3018,3.3045,3.3028,3.3043,3.3047,3.3052,3.3058,3.2947,3.3049,3.3048,3.3048,3.3048,3.3048,0,3.2883,3.289,3.2914,3.2936,3.2958,3.294,3.2956,3.2975,3.3005,3.3018,3.3039,3.3074,3.3101,3.3103,3.3129,3.315,3.3143,3.3158,3.3157,3.3159,3.3071,3.306,3.3164,3.3164,3.3164,3.3164,3.3164,3.3164,3.2936,3.2979,3.2977,3.3027,3.3033,3.3067,3.3078,3.3093,3.3104,3.3144,3.3167,3.3169,3.3179,3.3206,3.3231,3.3231,3.3242,3.3261,3.3259,3.3176,3.3165,3.3154,3.3144,3.3263,3.3263,3.3345,3.3346,3.3346]},{"header":{"parameterUnit":"m.s-1","parameterCategory":1,"la1":30.2991,"la2":30.254,"lo1":-89.0895,"lo2":-89.0444,"dy":0.0017,"dx":0.0017,"nx":28,"ny":28,"refTime":"2023-11-22T03:00:00:Z","depth":0,"parameterNumber":3,"parameterNumberName":"V-component_of_WINDS"},"data":[0,0,0,0,0,0,0,0,0,0,0,0,0,0,0,0,0,0,0,0,0,0,0,0,0,0,0,0,0,0,0,0,0,0,0,0,0,0,0,0,0,0,0,0,0,0,0,0,0,0,0,0,0,0,0,0,0,0,-4.7145,-4.7145,0,-4.7169,-4.7169,-4.7169,-4.7186,-4.7186,-4.7186,-4.7186,-4.7207,-4.7207,-4.7208,0,0,0,0,0,0,0,0,0,0,0,0,0,-4.7113,-4.7113,-4.7145,-4.7145,-4.7146,-4.7169,-4.7169,-4.7169,-4.7186,-4.7186,-4.7186,-4.7186,-4.7207,-4.7207,-4.7208,0,0,0,0,0,0,0,0,0,0,0,0,0,-4.713,-4.7113,-4.7145,-4.7157,-4.7158,-4.7169,-4.7169,-4.7169,-4.7186,-4.7186,-4.7186,-4.7186,-4.7206,-4.7207,-4.7208,-4.7208,0,0,-4.721,-4.721,0,0,0,0,0,0,0,0,-4.7129,-4.7132,-4.7155,-4.7156,-4.7157,-4.7175,-4.7165,-4.7182,-4.7185,-4.7175,-4.7186,-4.7186,-4.7196,-4.7197,-4.7201,-4.7209,-4.721,-4.721,-4.721,-4.721,-4.7211,0,0,0,0,0,0,0,-4.7128,-4.7131,-4.7154,-4.7155,-4.7157,-4.716,-4.7163,-4.7168,-4.7184,-4.7176,-4.7177,-4.718,-4.7196,-4.72,-4.7202,-4.721,-4.721,-4.721,-4.7211,-4.7211,-4.7221,-4.722,0,0,0,0,0,0,-4.7125,-4.7129,-4.7154,-4.7155,-4.7144,-4.7161,-4.7164,-4.7169,-4.7184,-4.7186,-4.718,-4.7181,-4.7199,-4.7201,-4.7202,-4.7205,-4.721,-4.7211,-4.7211,-4.7221,-4.7221,-4.722,0,0,0,0,0,0,-4.7125,-4.7127,-4.7153,-4.7143,-4.7146,-4.7161,-4.7166,-4.7169,-4.7173,-4.7187,-4.7189,-4.7181,-4.7199,-4.7202,-4.7207,-4.7205,-4.7211,-4.7212,-4.7221,-4.7221,-4.722,-4.7208,0,0,0,0,0,0,-4.7124,-4.7127,-4.7127,-4.7143,-4.7147,-4.7157,-4.7166,-4.7169,-4.7175,-4.7176,-4.7189,-4.7191,-4.72,-4.7206,-4.7208,-4.7206,-4.7212,-4.7221,-4.7221,-4.7221,-4.7208,-4.7207,-4.7206,0,0,0,0,0,-4.7122,-4.7122,-4.7127,-4.713,-4.7148,-4.7157,-4.7159,-4.717,-4.7174,-4.7175,-4.7184,-4.7191,-4.7206,-4.7206,-4.7208,-4.7207,-4.7221,-4.7221,-4.7221,-4.7209,-4.7208,-4.7206,0,0,0,0,0,0,-4.7104,-4.7124,-4.713,-4.7135,-4.7144,-4.716,-4.716,-4.7168,-4.7176,-4.7177,-4.7189,-4.7192,-4.7196,-4.7202,-4.7203,-4.7209,-4.7214,-4.7214,-4.7205,-4.7203,-4.7202,-4.7201,-4.7213,0,0,0,0,0,-4.7101,-4.7108,-4.7124,-4.7126,-4.7131,-4.7145,-4.7149,-4.7158,-4.7168,-4.7171,-4.7181,-4.7189,-4.7196,-4.72,-4.7207,-4.721,-4.7213,-4.721,-4.7209,-4.7208,-4.7208,-4.7211,-4.721,-4.7219,-4.7219,-4.7219,0,0,-4.7093,-4.7105,-4.7108,-4.7123,-4.7132,-4.7138,-4.7148,-4.7154,-4.7159,-4.7172,-4.7178,-4.7185,-4.7196,-4.72,-4.7203,-4.7206,-4.7206,-4.7208,-4.7207,-4.7207,-4.7211,-4.721,-4.7209,-4.7219,-4.7219,-4.7219,0,0,-4.7084,-4.7093,-4.7097,-4.7106,-4.7119,-4.7129,-4.713,-4.7145,-4.7151,-4.7158,-4.7168,-4.7174,-4.7185,-4.7192,-4.7198,-4.7194,-4.72,-4.7195,-4.7189,-4.7192,-4.7191,-4.7191,-4.719,-4.7189,-4.7195,-4.7195,-4.7195,0,-4.7072,-4.7083,-4.7097,-4.7104,-4.711,-4.7124,-4.7128,-4.7136,-4.715,-4.7154,-4.7157,-4.7173,-4.7181,-4.7188,-4.7188,-4.7191,-4.7193,-4.7194,-4.7191,-4.719,-4.719,-4.7189,-4.7189,-4.7195,-4.7195,-4.7195,-4.7195,0,-4.7069,-4.7077,-4.7078,-4.7094,-4.7101,-4.7105,-4.712,-4.7125,-4.7133,-4.7143,-4.715,-4.7161,-4.7171,-4.7173,-4.718,-4.7181,-4.7183,-4.7188,-4.7194,-4.7188,-4.7188,-4.7187,-4.7194,-4.7194,-4.7194,-4.7194,0,0,-4.7047,-4.7072,-4.7072,-4.708,-4.7097,-4.7103,-4.7109,-4.7121,-4.7125,-4.7135,-4.714,-4.7151,-4.7157,-4.7163,-4.7171,-4.7174,-4.7171,-4.7179,-4.7179,-4.7177,-4.7174,-4.717,-4.7169,-4.7176,-4.7176,-4.7176,-4.7173,0,-4.7039,-4.7052,-4.7066,-4.7073,-4.7081,-4.7096,-4.7101,-4.7112,-4.7121,-4.7129,-4.7139,-4.7146,-4.7153,-4.7157,-4.716,-4.717,-4.717,-4.7171,-4.7181,-4.7181,-4.7177,-4.7169,-4.7164,-4.7161,-4.7173,-4.7173,-4.7173,0,-4.7032,-4.7044,-4.7052,-4.7071,-4.7075,-4.7079,-4.7092,-4.7099,-4.7112,-4.7119,-4.7127,-4.7136,-4.7143,-4.7149,-4.7159,-4.7159,-4.7164,-4.717,-4.717,-4.7171,-4.7176,-4.717,-4.716,-4.716,-4.7173,-4.7173,-4.7173,0,-4.7015,-4.7033,-4.7041,-4.7047,-4.7069,-4.7072,-4.7081,-4.7094,-4.7101,-4.7112,-4.7116,-4.7127,-4.7133,-4.7141,-4.7153,-4.7156,-4.7162,-4.7168,-4.7168,-4.7168,-4.7168,-4.7168,-4.7159,-4.7171,-4.7171,-4.7171,-4.7171,0,-4.7006,-4.701,-4.7034,-4.7039,-4.7045,-4.7061,-4.7067,-4.7077,-4.7089,-4.7096,-4.7109,-4.7115,-4.7131,-4.7139,-4.7149,-4.7156,-4.7158,-4.7164,-4.7166,-4.7163,-4.7162,-4.7166,-4.7166,-4.7171,-4.7171,-4.7171,-4.7171,0,-4.6987,-4.7003,-4.7013,-4.7034,-4.7039,-4.7043,-4.706,-4.7065,-4.7076,-4.7085,-4.7088,-4.7105,-4.7115,-4.7129,-4.7143,-4.7149,-4.7156,-4.7159,-4.7152,-4.7153,-4.7152,-4.7152,-4.7145,-4.7146,-4.7157,-4.7157,-4.7157,0,-4.698,-4.6984,-4.7006,-4.7013,-4.7022,-4.7031,-4.7039,-4.7056,-4.7063,-4.708,-4.7083,-4.7095,-4.7105,-4.7121,-4.7134,-4.7145,-4.7149,-4.7146,-4.7151,-4.7148,-4.715,-4.7149,-4.715,-4.7145,-4.7145,-4.7144,-4.7144,0,-4.6965,-4.6974,-4.6985,-4.6999,-4.7009,-4.702,-4.7032,-4.7037,-4.7056,-4.7063,-4.7075,-4.7083,-4.7099,-4.7111,-4.7124,-4.7133,-4.7142,-4.7143,-4.7144,-4.714,-4.7135,-4.7138,-4.7149,-4.7143,-4.7143,-4.7143,-4.7143,-4.7143,-4.6952,-4.6958,-4.6975,-4.6987,-4.6999,-4.701,-4.7017,-4.703,-4.7041,-4.7056,-4.7065,-4.7077,-4.7091,-4.711,-4.7119,-4.7128,-4.7131,-4.7131,-4.7132,-4.7132,-4.7131,-4.7134,-4.713,-4.713,-4.713,-4.713,-4.713,0,-4.6939,-4.6951,-4.6962,-4.6981,-4.6991,-4.7,-4.7015,-4.7023,-4.7033,-4.7047,-4.7057,-4.7071,-4.7083,-4.7098,-4.7111,-4.7116,-4.712,-4.7119,-4.7118,-4.712,-4.7127,-4.7125,-4.7115,-4.7115,-4.7115,-4.7115,-4.7115,-4.7115,-4.6933,-4.6943,-4.6954,-4.697,-4.6982,-4.6995,-4.7003,-4.7014,-4.7025,-4.7041,-4.7051,-4.7062,-4.7076,-4.7091,-4.7102,-4.7106,-4.711,-4.7107,-4.7113,-4.7118,-4.712,-4.7121,-4.7119,-4.7108,-4.7108,-4.7106,-4.7106,-4.7105]}]]